W0DXV Weather Reports


Display with metric or nautical units.
time (UTC)temp
F
wind
direction
speed
MPH
gust
MPH
rain 1hr
in
rain 24hr
in
rain mn
in
humidity
%
barometer
mb
20260510063549 57 272 0.0 0.0 0.00 0.00 0.00 99 1008.6
20260510063046 57 272 0.0 0.0 0.00 0.00 0.00 99 1008.7
20260510062542 57 272 0.0 0.0 0.00 0.00 0.00 99 1008.7
20260510062037 57 272 0.0 0.0 0.00 0.00 0.00 99 1008.5
20260510061534 57 272 0.0 0.0 0.00 0.00 0.00 99 1008.5
20260510061031 57 272 0.0 0.0 0.00 0.00 0.00 99 1008.6
20260510060527 57 272 0.0 0.0 0.00 0.00 0.00 99 1008.8
20260510060023 57 273 0.0 0.0 0.00 0.00 0.00 99 1008.6
20260510055520 57 273 0.0 0.0 0.00 0.00 0.00 99 1008.7
20260510055018 57 273 0.0 0.0 0.00 0.00 0.00 99 1008.8
20260510054513 57 273 0.0 0.0 0.00 0.00 0.00 99 1008.7
20260510054009 58 273 0.0 0.0 0.00 0.00 0.00 99 1008.8
20260510053503 58 263 0.0 0.0 0.00 0.00 0.00 99 1008.6
20260510053001 58 263 0.0 0.0 0.00 0.00 0.00 99 1008.7
20260510052456 58 263 0.0 0.0 0.00 0.00 0.00 98 1008.8
20260510051953 58 262 0.0 0.0 0.00 0.00 0.00 98 1008.9
20260510051448 58 260 0.0 0.0 0.00 0.00 0.00 98 1009.0
20260510050945 58 260 0.0 0.0 0.00 0.00 0.00 98 1008.9
20260510050442 58 260 0.0 0.0 0.00 0.00 0.00 98 1009.0
20260510045939 58 5 0.0 0.0 0.00 0.00 0.00 98 1008.8
20260510045436 58 5 0.0 1.0 0.00 0.00 0.00 98 1008.8
20260510044933 59 3 0.0 0.0 0.00 0.00 0.00 98 1009.1
20260510044430 58 2 0.0 0.0 0.00 0.00 0.00 98 1008.9
20260510043927 59 2 0.0 0.0 0.00 0.00 0.00 98 1008.9
20260510043423 59 2 0.0 0.0 0.00 0.00 0.00 98 1008.8
20260510042921 59 2 0.0 0.0 0.00 0.00 0.00 98 1008.9
20260510042416 59 2 0.0 0.0 0.00 0.00 0.00 98 1008.9
20260510041912 59 3 0.0 0.0 0.00 0.00 0.00 98 1009.0
20260510041410 59 5 0.0 0.0 0.00 0.00 0.00 98 1009.0
20260510040908 59 7 1.0 1.0 0.00 0.00 0.00 97 1008.8
20260510040404 59 300 0.0 0.0 0.00 0.00 0.00 97 1008.9
20260510035900 59 300 0.0 0.0 0.00 0.00 0.00 97 1009.0
20260510035356 59 300 0.0 0.0 0.00 0.00 0.00 97 1009.3
20260510034851 59 300 0.0 0.0 0.00 0.00 0.00 97 1009.0
20260510034350 59 300 0.0 0.0 0.00 0.00 0.00 97 1008.8
20260510033846 59 300 0.0 0.0 0.00 0.00 0.00 97 1008.8
20260510033342 60 300 0.0 0.0 0.00 0.00 0.00 96 1009.0
20260510032839 60 300 0.0 0.0 0.00 0.00 0.00 96 1009.0
20260510032336 60 300 0.0 0.0 0.00 0.00 0.00 96 1009.1
20260510031831 60 300 0.0 0.0 0.00 0.00 0.00 96 1009.0
20260510031326 60 300 0.0 0.0 0.00 0.00 0.00 96 1009.0
20260510030821 60 300 0.0 0.0 0.00 0.00 0.00 96 1008.9
20260510030318 60 300 0.0 0.0 0.00 0.00 0.00 95 1009.0
20260510025815 60 300 0.0 0.0 0.00 0.00 0.00 95 1009.0
20260510025312 61 300 0.0 0.0 0.00 0.00 0.00 95 1009.0
20260510024809 61 300 0.0 0.0 0.00 0.00 0.00 95 1008.8
20260510024306 61 300 0.0 0.0 0.00 0.00 0.00 95 1009.0
20260510023802 61 300 0.0 0.0 0.00 0.00 0.00 95 1009.0
20260510023259 61 300 0.0 0.0 0.00 0.00 0.00 95 1008.7
20260510022756 61 300 0.0 0.0 0.00 0.00 0.00 95 1008.7
20260510022255 61 300 0.0 0.0 0.00 0.00 0.00 94 1008.6
20260510021754 61 300 0.0 0.0 0.00 0.00 0.00 94 1008.7
20260510021253 61 300 0.0 0.0 0.00 0.00 0.00 94 1008.5
20260510020748 61 300 0.0 0.0 0.00 0.00 0.00 94 1008.5
20260510020243 61 300 0.0 0.0 0.00 0.00 0.00 94 1008.8
20260510015739 61 300 0.0 0.0 0.00 0.00 0.00 93 1008.4
20260510015236 62 300 0.0 0.0 0.00 0.00 0.00 93 1008.4
20260510014731 62 270 0.0 0.0 0.00 0.00 0.00 92 1008.5
20260510014228 62 247 0.0 0.0 0.00 0.00 0.00 92 1008.3
20260510013724 62 247 0.0 0.0 0.00 0.00 0.00 92 1008.1
20260510013220 63 247 0.0 0.0 0.00 0.00 0.00 92 1007.9
20260510012719 63 247 0.0 0.0 0.00 0.00 0.00 91 1008.3
20260510012215 63 247 0.0 0.0 0.00 0.00 0.00 90 1008.0
20260510011709 63 247 0.0 0.0 0.00 0.00 0.00 90 1007.9
20260510011205 63 247 0.0 0.0 0.00 0.00 0.00 90 1008.1
20260510010702 63 247 0.0 0.0 0.00 0.00 0.00 89 1007.7
20260510010159 64 246 0.0 0.0 0.00 0.00 0.00 89 1007.6
20260510005655 64 247 0.0 0.0 0.00 0.00 0.00 89 1007.6
20260510005152 64 247 0.0 0.0 0.00 0.00 0.00 88 1007.4
20260510004650 65 247 0.0 0.0 0.00 0.00 0.00 87 1007.2
20260510004148 65 247 0.0 0.0 0.00 0.00 0.00 86 1007.1
20260510003645 66 247 0.0 0.0 0.00 0.00 0.00 86 1007.2
20260510003140 66 245 1.0 1.0 0.00 0.00 0.00 84 1007.3
20260510002635 66 237 0.0 0.0 0.00 0.00 0.00 83 1006.9
20260510002132 67 237 0.0 0.0 0.00 0.00 0.00 82 1007.1
20260510001629 67 236 0.0 0.0 0.00 0.00 0.00 80 1006.9
20260510001128 68 236 0.0 0.0 0.00 0.00 0.00 79 1007.0
20260510000628 68 236 0.0 0.0 0.00 0.00 0.00 78 1006.9
20260510000126 68 236 0.0 0.0 0.00 0.00 0.00 78 1006.9
20260509235621 69 236 0.0 0.0 0.00 0.00 0.00 77 1006.9
20260509235119 69 237 0.0 0.0 0.00 0.00 0.00 77 1006.6
20260509234614 69 236 0.0 0.0 0.00 0.00 0.00 77 1006.6
20260509234113 69 236 0.0 0.0 0.00 0.00 0.00 77 1006.8
20260509233610 69 236 0.0 0.0 0.00 0.00 0.00 77 1006.8
20260509233107 69 236 0.0 0.0 0.00 0.00 0.00 76 1006.7
20260509232603 69 235 1.0 1.0 0.00 0.00 0.00 75 1006.7
20260509232100 70 237 0.0 1.0 0.00 0.00 0.00 75 1006.6
20260509231556 70 231 1.0 2.0 0.00 0.00 0.00 75 1006.5
20260509231054 71 225 2.0 2.0 0.00 0.00 0.00 74 1006.7
20260509230551 71 234 1.0 2.0 0.00 0.00 0.00 75 1006.5
20260509230048 71 233 0.0 0.0 0.00 0.00 0.00 75 1006.4
20260509225548 71 230 1.0 1.0 0.00 0.00 0.00 74 1006.4
20260509225044 71 221 2.0 2.0 0.00 0.00 0.00 74 1006.3
20260509224540 71 233 0.0 0.0 0.00 0.00 0.00 72 1006.3
20260509224037 71 233 1.0 2.0 0.00 0.00 0.00 72 1006.3
20260509223534 72 232 1.0 1.0 0.00 0.00 0.00 71 1006.1
20260509223032 72 245 0.0 1.0 0.00 0.00 0.00 69 1006.1
20260509222527 72 197 0.0 0.0 0.00 0.00 0.00 70 1006.1
20260509222024 72 205 1.0 1.0 0.00 0.00 0.00 72 1006.2
20260509221519 72 308 1.0 1.0 0.00 0.00 0.00 71 1005.9
20260509221015 73 94 2.0 3.0 0.00 0.00 0.00 67 1006.1
20260509220511 73 238 1.0 1.0 0.00 0.00 0.00 69 1006.0
20260509220008 73 245 1.0 2.0 0.00 0.00 0.00 68 1006.0
20260509215503 73 233 1.0 1.0 0.00 0.00 0.00 69 1006.1
20260509215001 73 232 0.0 0.0 0.00 0.00 0.00 69 1006.0
20260509214458 73 255 0.0 0.0 0.00 0.00 0.00 70 1006.0
20260509213954 73 246 1.0 1.0 0.00 0.00 0.00 67 1006.0
20260509213450 73 229 1.0 2.0 0.00 0.00 0.00 67 1006.2
20260509212948 73 232 2.0 2.0 0.00 0.00 0.00 69 1005.7
20260509212445 73 274 0.0 1.0 0.00 0.00 0.00 69 1006.0
20260509211941 73 232 0.0 1.0 0.00 0.00 0.00 69 1005.9
20260509211437 74 236 0.0 1.0 0.00 0.00 0.00 68 1005.8
20260509210934 73 237 2.0 3.0 0.00 0.00 0.00 68 1006.0
20260509210431 73 237 0.0 0.0 0.00 0.00 0.00 68 1006.0
20260509205926 74 222 1.0 2.0 0.00 0.00 0.00 67 1005.9
20260509205421 74 230 2.0 2.0 0.00 0.00 0.00 67 1005.9
20260509204918 74 239 1.0 1.0 0.00 0.00 0.00 66 1005.8
20260509204414 73 244 0.0 1.0 0.00 0.00 0.00 67 1005.9
20260509203911 73 244 2.0 2.0 0.00 0.00 0.00 65 1006.0
20260509203407 74 234 1.0 2.0 0.00 0.00 0.00 65 1005.6
20260509202904 75 231 2.0 2.0 0.00 0.00 0.00 64 1005.2
20260509202400 75 292 2.0 3.0 0.00 0.00 0.00 67 1005.7
20260509201855 75 265 1.0 1.0 0.00 0.00 0.00 64 1005.9
20260509201351 75 279 1.0 1.0 0.00 0.00 0.00 64 1005.9
20260509200848 74 270 1.0 1.0 0.00 0.00 0.00 65 1005.9
20260509200343 74 228 1.0 1.0 0.00 0.00 0.00 67 1005.8
20260509195840 75 296 3.0 3.0 0.00 0.00 0.00 67 1005.9
20260509195340 75 248 1.0 2.0 0.00 0.00 0.00 65 1006.0
20260509194839 73 212 1.0 2.0 0.00 0.00 0.00 66 1006.0
20260509194336 73 241 0.0 1.0 0.00 0.00 0.00 68 1006.1
20260509193832 72 236 0.0 0.0 0.00 0.00 0.00 68 1006.1
20260509193327 72 261 1.0 2.0 0.00 0.00 0.00 70 1006.2
20260509192823 72 256 1.0 1.0 0.00 0.00 0.00 69 1006.1
20260509192319 71 230 1.0 2.0 0.00 0.00 0.00 72 1006.4
20260509191815 72 253 3.0 3.0 0.00 0.00 0.00 69 1006.3
20260509191311 72 280 1.0 2.0 0.00 0.00 0.00 69 1006.5
20260509190806 72 229 2.0 2.0 0.00 0.00 0.00 69 1006.7
20260509190304 73 240 1.0 1.0 0.00 0.00 0.00 68 1006.5
20260509185801 73 273 1.0 1.0 0.00 0.00 0.00 68 1006.5
20260509185257 72 253 1.0 1.0 0.00 0.00 0.00 70 1006.6
20260509184755 71 305 1.0 2.0 0.00 0.00 0.00 71 1006.6
20260509184252 70 277 0.0 1.0 0.00 0.00 0.00 73 1006.7
20260509183749 69 234 2.0 3.0 0.00 0.00 0.00 73 1006.9
20260509183244 69 252 0.0 1.0 0.00 0.00 0.00 74 1006.8
20260509182740 70 248 0.0 1.0 0.00 0.00 0.00 77 1006.7
20260509182237 71 244 0.0 1.0 0.00 0.00 0.00 71 1007.0
20260509181734 71 248 0.0 1.0 0.00 0.00 0.00 71 1006.7
20260509181232 70 267 1.0 1.0 0.00 0.00 0.00 72 1006.9
20260509180729 70 238 0.0 0.0 0.00 0.00 0.00 73 1007.1
20260509180225 69 238 0.0 0.0 0.00 0.00 0.00 73 1007.2
20260509175722 69 270 0.0 1.0 0.00 0.00 0.00 72 1007.2
20260509175218 70 250 1.0 1.0 0.00 0.00 0.00 73 1007.2
20260509174714 69 236 1.0 1.0 0.00 0.00 0.00 74 1007.3
20260509174209 69 255 1.0 1.0 0.00 0.00 0.00 73 1007.1
20260509173706 69 259 1.0 1.0 0.00 0.00 0.00 71 1007.4
20260509173201 69 258 2.0 2.0 0.00 0.00 0.00 71 1007.6
20260509172658 69 219 2.0 2.0 0.00 0.00 0.00 72 1007.1
20260509172154 70 253 1.0 2.0 0.00 0.00 0.00 71 1007.3
20260509171649 69 242 0.0 1.0 0.00 0.00 0.00 70 1007.6
20260509171146 69 257 1.0 1.0 0.00 0.00 0.00 70 1007.6
20260509170643 69 232 3.0 3.0 0.00 0.00 0.00 71 1007.6
20260509170139 69 280 1.0 1.0 0.00 0.00 0.00 71 1007.7
20260509165637 69 225 2.0 2.0 0.00 0.00 0.00 70 1007.7
20260509165133 70 262 1.0 2.0 0.00 0.00 0.00 70 1007.9
20260509164629 69 230 1.0 1.0 0.00 0.00 0.00 72 1007.6
20260509164126 69 242 1.0 1.0 0.00 0.00 0.00 72 1007.6
20260509163623 69 246 2.0 2.0 0.00 0.00 0.00 70 1008.0
20260509163118 71 223 3.0 3.0 0.00 0.00 0.00 69 1007.9
20260509162616 71 128 1.0 2.0 0.00 0.00 0.00 69 1007.8
20260509162112 71 282 2.0 2.0 0.00 0.00 0.00 70 1008.1
20260509161609 70 244 1.0 1.0 0.00 0.00 0.00 71 1008.2
20260509161109 71 253 1.0 1.0 0.00 0.00 0.00 70 1008.3
20260509160605 71 267 2.0 2.0 0.00 0.00 0.00 69 1008.3
20260509160100 70 242 0.0 1.0 0.00 0.00 0.00 70 1008.2
20260509155557 70 136 1.0 2.0 0.00 0.00 0.00 71 1008.4
20260509155053 70 240 1.0 1.0 0.00 0.00 0.00 72 1008.1
20260509154549 70 248 1.0 1.0 0.00 0.00 0.00 71 1008.1
20260509154047 70 280 0.0 1.0 0.00 0.00 0.00 72 1008.1
20260509153544 70 171 1.0 1.0 0.00 0.00 0.00 69 1008.2
20260509153040 71 85 2.0 2.0 0.00 0.00 0.00 71 1007.9
20260509152536 69 278 1.0 2.0 0.00 0.00 0.00 74 1007.9
20260509152034 69 146 1.0 2.0 0.00 0.00 0.00 71 1007.9
20260509151530 68 291 1.0 1.0 0.00 0.00 0.00 76 1008.0
20260509151028 69 245 1.0 1.0 0.00 0.00 0.00 74 1008.2
20260509150525 70 225 2.0 3.0 0.00 0.00 0.00 74 1008.0
20260509150024 70 142 3.0 5.0 0.00 0.00 0.00 71 1008.2
20260509145518 70 212 1.0 2.0 0.00 0.00 0.00 73 1007.9
20260509145014 69 220 1.0 1.0 0.00 0.00 0.00 75 1008.4
20260509144511 68 196 1.0 1.0 0.00 0.00 0.00 76 1008.3
20260509144008 66 133 0.0 1.0 0.00 0.00 0.00 80 1008.4
20260509143505 65 260 0.0 0.0 0.00 0.00 0.00 82 1008.3
20260509143003 65 260 1.0 1.0 0.00 0.00 0.00 81 1008.2
20260509142458 66 258 0.0 0.0 0.00 0.00 0.00 81 1008.3
20260509141954 65 244 1.0 1.0 0.00 0.00 0.00 82 1008.2
20260509141450 65 231 1.0 1.0 0.00 0.00 0.00 82 1008.3
20260509140948 65 260 1.0 1.0 0.00 0.00 0.00 82 1008.3
20260509140443 66 155 2.0 3.0 0.00 0.00 0.00 81 1008.5
20260509135942 65 247 1.0 1.0 0.00 0.00 0.00 82 1008.6
20260509135439 66 229 1.0 1.0 0.00 0.00 0.00 82 1008.5
20260509134936 65 189 1.0 1.0 0.00 0.00 0.00 82 1008.5
20260509134434 64 242 1.0 1.0 0.00 0.00 0.00 83 1008.4
20260509133931 63 227 0.0 1.0 0.00 0.00 0.00 85 1008.6
20260509133427 63 267 1.0 1.0 0.00 0.00 0.00 84 1008.8
20260509132926 62 137 0.0 1.0 0.00 0.00 0.00 86 1008.6
20260509132424 61 231 1.0 1.0 0.00 0.00 0.00 87 1009.0
20260509131920 60 229 0.0 0.0 0.00 0.00 0.00 88 1009.1
20260509131418 60 236 0.0 0.0 0.00 0.00 0.00 89 1009.2
20260509130914 60 244 0.0 0.0 0.00 0.00 0.00 89 1009.3
20260509130409 60 267 1.0 1.0 0.00 0.00 0.00 89 1009.4
20260509125907 59 235 1.0 1.0 0.00 0.00 0.00 89 1009.7
20260509125403 59 313 0.0 0.0 0.00 0.00 0.00 90 1009.7
20260509124859 58 313 0.0 0.0 0.00 0.00 0.00 92 1009.6
20260509124356 57 317 0.0 1.0 0.00 0.00 0.00 93 1009.6
20260509123854 56 251 0.0 0.0 0.00 0.00 0.00 94 1009.5
20260509123351 56 261 0.0 0.0 0.00 0.00 0.00 95 1009.6
20260509122847 55 260 0.0 0.0 0.00 0.00 0.00 97 1009.7
20260509122344 54 260 0.0 0.0 0.00 0.00 0.00 97 1009.6
20260509121841 54 260 0.0 1.0 0.00 0.00 0.00 98 1009.4
20260509121338 53 260 0.0 1.0 0.00 0.00 0.00 99 1009.3
20260509120836 53 290 0.0 0.0 0.00 0.00 0.00 99 1009.2
20260509120334 52 293 0.0 0.0 0.00 0.00 0.00 99 1009.2
20260509115832 52 257 0.0 0.0 0.00 0.00 0.00 99 1009.2
20260509115328 51 257 0.0 0.0 0.00 0.00 0.00 99 1009.1
20260509114826 51 257 0.0 0.0 0.00 0.00 0.00 99 1009.1
20260509114325 51 264 0.0 1.0 0.00 0.00 0.00 99 1009.1
20260509113824 51 310 0.0 0.0 0.00 0.00 0.00 99 1009.2
20260509113320 50 310 0.0 0.0 0.00 0.00 0.00 99 1009.3
20260509112817 49 310 0.0 0.0 0.00 0.00 0.00 99 1009.2
20260509112314 49 310 0.0 0.0 0.00 0.00 0.00 99 1009.4
20260509111811 48 310 0.0 0.0 0.00 0.00 0.00 99 1008.9
20260509111308 48 310 0.0 0.0 0.00 0.00 0.00 99 1009.1
20260509110806 48 310 0.0 0.0 0.00 0.00 0.00 99 1009.1
20260509110302 47 310 0.0 0.0 0.00 0.00 0.00 99 1009.0
20260509105800 47 310 0.0 0.0 0.00 0.00 0.00 99 1009.0
20260509105258 47 310 0.0 0.0 0.00 0.00 0.00 99 1009.0
20260509104754 47 310 0.0 0.0 0.00 0.00 0.00 99 1008.9
20260509104251 46 310 0.0 0.0 0.00 0.00 0.00 99 1009.0
20260509103749 46 310 0.0 0.0 0.00 0.00 0.00 99 1009.2
20260509103246 46 310 0.0 0.0 0.00 0.00 0.00 99 1009.0
20260509102744 46 310 0.0 0.0 0.00 0.00 0.00 99 1008.9
20260509102241 46 310 0.0 0.0 0.00 0.00 0.00 99 1008.6
20260509101737 46 311 0.0 0.0 0.00 0.00 0.00 99 1008.6
20260509101233 46 310 0.0 0.0 0.00 0.00 0.00 99 1008.7
20260509100731 46 311 0.0 0.0 0.00 0.00 0.00 99 1008.6
20260509100228 46 310 0.0 0.0 0.00 0.00 0.00 99 1008.6
20260509095725 46 310 0.0 0.0 0.00 0.00 0.00 99 1008.5
20260509095222 46 311 0.0 0.0 0.00 0.00 0.00 99 1008.6
20260509094719 46 311 0.0 0.0 0.00 0.00 0.00 99 1008.3
20260509094216 47 311 0.0 0.0 0.00 0.00 0.00 99 1008.6
20260509093714 47 311 0.0 0.0 0.00 0.00 0.00 99 1008.4
20260509093211 47 311 0.0 0.0 0.00 0.00 0.00 99 1008.4
20260509092709 47 310 0.0 0.0 0.00 0.00 0.00 99 1008.4
20260509092207 47 310 0.0 0.0 0.00 0.00 0.00 99 1008.4
20260509091705 47 310 0.0 0.0 0.00 0.00 0.00 99 1008.5
20260509091200 47 310 0.0 0.0 0.00 0.00 0.00 99 1008.6
20260509090659 48 311 0.0 0.0 0.00 0.00 0.00 99 1008.9
20260509090155 48 310 0.0 0.0 0.00 0.00 0.00 99 1009.0
20260509085653 48 311 0.0 0.0 0.00 0.00 0.00 99 1008.8
20260509085149 48 311 0.0 0.0 0.00 0.00 0.00 99 1009.0
20260509084646 48 310 0.0 0.0 0.00 0.00 0.00 99 1008.7
20260509084143 48 311 0.0 0.0 0.00 0.00 0.00 99 1008.7
20260509083641 48 312 0.0 1.0 0.00 0.00 0.00 99 1008.8
20260509083137 48 313 1.0 1.0 0.00 0.00 0.00 99 1008.6
20260509082634 48 303 0.0 0.0 0.00 0.00 0.00 99 1008.6
20260509082131 48 303 0.0 0.0 0.00 0.00 0.00 98 1008.6
20260509081628 48 303 0.0 0.0 0.00 0.00 0.00 98 1008.7
20260509081125 48 303 0.0 0.0 0.00 0.00 0.00 98 1008.8
20260509080623 49 302 0.0 0.0 0.00 0.00 0.00 98 1008.8
20260509080121 49 302 0.0 0.0 0.00 0.00 0.00 98 1008.8
20260509075619 49 302 0.0 0.0 0.00 0.00 0.00 98 1008.6
20260509075116 49 302 0.0 0.0 0.00 0.00 0.00 98 1008.9
20260509074613 49 302 0.0 0.0 0.00 0.00 0.00 98 1008.9
20260509074109 49 302 0.0 0.0 0.00 0.00 0.00 98 1008.8
20260509073606 49 302 0.0 0.0 0.00 0.00 0.00 98 1009.1
20260509073102 49 302 0.0 0.0 0.00 0.00 0.00 98 1009.0
20260509072559 49 302 0.0 0.0 0.00 0.00 0.00 98 1009.4
20260509072056 49 302 0.0 0.0 0.00 0.00 0.00 98 1009.4
20260509071553 49 302 0.0 0.0 0.00 0.00 0.00 98 1009.2
20260509071050 49 302 0.0 0.0 0.00 0.00 0.00 98 1009.3
20260509070547 49 302 0.0 0.0 0.00 0.00 0.00 98 1009.2
20260509070038 49 302 0.0 0.0 0.00 0.00 0.00 98 1009.3
20260509065533 49 302 0.0 0.0 0.00 0.00 0.00 97 1009.4
20260509065030 49 302 0.0 0.0 0.00 0.00 0.00 97 1009.5
20260509064527 49 302 0.0 0.0 0.00 0.00 0.00 97 1009.5
20260509064025 49 302 0.0 0.0 0.00 0.00 0.00 97 1009.4